#timestamp,LO_Frequency,Hit,StdDev 
1664568015.2,286047000.9,N
1664568035.0,286047000.8,N
1664568035.9,286047000.8,N
1664568055.8,286047002.3,N
1664568075.6,286047000.6,N
1664568095.5,286047002.4,N
1664568115.3,286047002.5,N
1664568135.1,286046998.8,N
1664568155.9,286046999.4,N
1664568175.7,286046998.3,N
1664568195.5,286047000.5,N
1664568215.4,286047000.6,N
1664568235.2,286046997.2,N
1664568255.1,286046996.7,N
1664568256.0,286046996.7,N
1664568275.8,286046996.9,N
1664568295.6,286046998.8,N
1664568315.5,286046999.2,N
1664568335.3,286047000.4,N
1664568355.2,286047004.2,N
1664568375.9,286047001.7,N
1664568395.7,286047002.3,N
1664568415.6,286047002.5,N
1664568435.4,286047001.8,N
1664568455.2,286047003.6,N
1664568475.1,286047005.4,N
1664568476.0,286047005.4,N
1664568495.8,286047001.6,N
1664568515.7,286047002.1,N
1664568535.5,286047001.4,N
1664568555.3,286047001.6,N
1664568575.2,286047002.1,N
1664568595.0,286047001.4,N
1664568595.9,286047001.4,N
1664568615.8,286047002.5,N
1664568635.6,286047002.3,N
1664568655.4,286046999.9,N
1664568675.3,286047001.7,N
1664568695.1,286047000.4,N
1664568715.8,286046999.9,N
1664568735.7,286047001.7,N
1664568755.5,286047001.3,N
1664568775.4,286047000.2,N
1664568795.2,286047000.0,N
1664568815.0,286047002.0,N
1664568815.9,286047002.0,N
1664568835.8,286047002.1,N
1664568855.6,286047003.5,N
1664568875.5,286047005.8,Y
1664568895.3,286047003.3,P
1664568915.1,286047005.2,P
1664568935.9,286047005.7,P
1664568955.7,286047005.8,Y
1664568975.6,286047002.6,P
1664568995.4,286047000.8,N
1664569015.2,286046998.3,N
1664569035.1,286046998.4,N
1664569036.0,286046998.4,N
1664569055.8,286046998.1,N
1664569075.7,286047000.9,N
1664569095.5,286047001.6,N
1664569115.3,286047002.0,N
1664569135.2,286047002.2,N
1664569155.9,286046999.9,N
1664569175.7,286047000.3,N
1664569195.6,286047000.2,N
1664569215.4,286047000.2,N
1664569235.3,286047000.7,N
1664569255.1,286047000.4,N
1664569275.8,286047000.8,N
1664569295.7,286046998.6,N
1664569315.5,286046999.4,N
1664569335.4,286046998.3,N
1664569355.2,286046998.7,N
1664569375.0,286046996.7,N
1664569375.9,286046996.7,N
1664569395.8,286046997.2,N
1664569415.6,286046996.6,N
1664569435.4,286046997.3,N
1664569455.3,286046997.6,N
1664569475.1,286046997.5,N
1664569495.9,286046997.9,N
1664569515.7,286046996.1,N
1664569535.5,286046996.4,N
1664569555.4,286046993.8,Y
1664569575.2,286046993.4,P
1664569595.1,286046995.6,N
1664569596.0,286046995.6,N
1664569615.8,286046995.8,N
1664569635.6,286046996.3,N
1664569655.5,286046991.7,Y
1664569675.3,286046997.6,P
1664569695.1,286046996.9,P
1664569715.9,286046999.2,N
1664569735.7,286046996.6,N
1664569755.6,286046999.6,N
1664569775.4,286046999.5,N
1664569795.2,286046997.5,N
1664569815.1,286046997.7,N
1664569816.0,286046997.7,N
1664569835.8,286046995.3,Y
1664569855.7,286046999.4,P
1664569875.5,286046997.0,P
1664569895.3,286046995.0,P
1664569915.2,286046998.0,N
1664569935.9,286046994.9,Y
1664569955.7,286046999.1,P
1664569975.6,286046997.1,P
1664569995.4,286046996.6,P
1664570015.3,286046997.8,N
1664570035.1,286046995.1,Y
1664570055.8,286046997.3,P
1664570075.7,286046996.8,P
1664570095.5,286046996.6,P
1664570115.4,286046999.2,N
1664570135.2,286046999.5,N
1664570155.0,286047001.0,N
1664570155.9,286047001.0,N
1664570175.8,286046998.6,N
1664570195.6,286047000.7,N
1664570215.4,286046998.4,N
1664570235.3,286046999.2,N
1664570255.1,286046999.5,N
1664570275.9,286046996.8,N
1664570295.7,286046997.4,N
1664570315.5,286046997.7,N
1664570335.4,286046997.5,N
1664570355.2,286046994.9,Y
1664570375.1,286046998.9,P
1664570376.0,286046998.9,P
1664570395.8,286046998.4,P
1664570415.6,286046999.9,N
1664570435.5,286047002.3,Y
1664570455.3,286047002.6,P
1664570475.2,286046999.7,N
1664570495.9,286047000.2,N
1664570515.7,286047000.5,N
1664570535.6,286047001.2,N
1664570555.4,286047001.2,N
1664570575.2,286046998.4,N
1664570595.1,286047001.2,N
1664570596.0,286047001.2,N
1664570615.8,286046998.5,N
1664570665.7,286046998.7,E
1664570675.6,286046998.3,N
1664570695.5,286047000.4,P
1664570715.3,286047000.6,N
1664570735.1,286047000.5,N
1664570755.9,286047000.0,N
1664570775.7,286047000.7,N
1664570795.5,286046998.5,N
1664570815.4,286046998.6,N
1664570835.2,286046998.8,N
1664570855.1,286047001.2,N
1664570856.0,286047001.2,N
1664570875.8,286046999.5,N
1664570895.6,286046999.2,N
1664570915.5,286046996.5,Y
1664570935.3,286046996.9,P
1664570955.1,286046998.8,N
1664570975.9,286046999.0,N
1664570995.7,286046999.5,N
1664571015.6,286046998.3,N
1664571035.4,286046999.2,N
1664571055.2,286046999.2,N
1664571075.1,286046999.2,N
1664571076.0,286046999.2,N
1664571095.8,286046999.6,N
1664571115.7,286046998.3,N
1664571135.5,286046998.9,N
1664571155.3,286046998.4,N
1664571175.2,286046998.2,N
1664571195.9,286047001.1,N
1664571215.7,286046998.7,N
1664571235.6,286046998.3,N
1664571255.4,286046999.0,N
1664571275.3,286046999.3,N
1664571295.1,286046999.6,N
1664571296.0,286046999.6,N
1664571315.8,286046999.2,N
1664571335.7,286047001.1,N
1664571355.5,286046998.8,N
1664571375.3,286046999.0,N
1664571395.2,286046998.7,N
1664571415.0,286046998.4,N
1664571415.9,286046998.4,N
1664571435.8,286047000.8,N
1664571455.6,286046999.4,N
1664571475.4,286046998.2,N
1664571495.3,286046998.5,N
1664571515.1,286046998.4,N
1664571535.9,286046998.4,N
1664571555.7,286046999.1,N
1664571575.5,286046996.7,Y
1664571595.4,286046998.9,P
